Terminal Aerodrome Forecast
Issued by NWS

Home | Current Version | Previous Version | Text Only | Print | Product List | Glossary On
Versions: 1 2 3 4 5 6 7 8 9 10 11 12 13 14
000
FTUS42 TJSJ 312339
TAFJMZ
TAF
TJMZ 312339Z 0100/0124 08008KT P6SM FEW030 SCT060 SCT120
     FM010300 05003KT P6SM FEW120
     FM011600 27010KT P6SM VCTS SCT025CB BKN040
     FM012330 07006KT P6SM SCT030 BKN070 BKN120
      AMD NOT SKED TIL 011100=

USA.gov is the U.S. government's official web portal to all federal, state and local government web resources and services.